Location: Jonesport
(44.5330°N, 67.5990°W)
Time: 23:35:32
(UTC-04:00)

Iridium 35 - Visible Passes

Search period start: 22 April 2018 00:00
Search period end: 02 May 2018 00:00
Orbit: 761 x 765 km, 86.4° (Epoch: 22 April)

Date Brightness Start Highest point End Pass type
(mag) Time Alt. Az. Time Alt. Az. Time Alt. Az.
22 Apr 7.0 00:32:13 21° WNW 00:32:13 21° WNW 00:35:15 10° NNW visible
22 Apr 6.5 22:14:07 22° ENE 22:14:07 22° ENE 22:17:06 10° NNE visible
22 Apr 6.2 23:54:16 37° NW 23:54:16 37° NW 23:58:04 10° N visible
23 Apr 7.1 21:36:11 12° ENE 21:36:11 12° ENE 21:37:40 10° NE visible
23 Apr 5.5 23:16:20 57° N 23:16:20 57° N 23:20:26 10° N visible
24 Apr 7.6 00:56:28 10° WNW 00:56:31 10° WNW 00:57:25 10° WNW visible
24 Apr 5.6 22:38:22 45° NE 22:38:22 45° NE 22:42:27 10° NNE visible
25 Apr 6.9 00:18:31 20° WNW 00:18:31 20° WNW 00:22:01 10° NNW visible
25 Apr 6.3 22:00:24 25° ENE 22:00:24 25° ENE 22:04:06 10° NNE visible
25 Apr 6.1 23:40:33 38° WNW 23:40:33 38° WNW 23:44:54 10° NNW visible
26 Apr 6.9 21:22:25 13° ENE 21:22:27 13° ENE 21:24:52 10° NE visible
26 Apr 5.1 23:02:34 71° NW 23:02:34 71° NW 23:07:19 10° N visible
27 Apr 5.2 22:24:34 54° ENE 22:24:34 54° ENE 22:29:23 10° NNE visible
28 Apr 7.0 00:04:43 19° W 00:05:08 19° WNW 00:08:46 10° NNW visible
28 Apr 6.0 21:46:34 28° E 21:46:44 28° E 21:51:03 10° NNE visible
28 Apr 6.1 23:26:43 36° W 23:26:59 36° W 23:31:44 10° NNW visible
29 Apr 6.8 21:08:33 14° E 21:09:16 15° ENE 21:11:59 10° NE visible
29 Apr 5.0 22:48:42 69° WSW 22:49:01 71° W 22:54:11 10° N visible
30 Apr 5.0 22:10:40 55° ESE 22:11:13 59° E 22:16:17 10° N visible
30 Apr 7.1 23:50:48 16° W 23:52:04 18° WNW 23:55:30 10° NNW visible
01 May 5.9 21:32:37 28° ESE 21:33:35 30° E 21:38:01 10° NNE visible
01 May 6.2 23:12:46 30° WSW 23:13:54 33° W 23:18:33 10° NNW visible
